Thermopolis, WY

12:13 PM MDT on March 24, 2017 (GMT -0600)
Thermopolis

Weather History for KTBX - February, 2013

Change the Weather History Date:

Tuesday, February 5, 2013

  Actual Average (KRIW) Record (KRIW)
Temperature  
Mean Temperature 32 °F -  
Max Temperature 35 °F 30 °F 55 °F (2007)
Min Temperature 28 °F 0 °F -21 °F (2014)
Degree Days  
Heating Degree Days 34    
Moisture  
Dew Point 18 °F    
Average Humidity 57    
Maximum Humidity 69    
Minimum Humidity 38    
Precipitation  
Precipitation 0.00 in - - ()
Sea Level Pressure  
Sea Level Pressure 29.95 in    
Wind  
Wind Speed 10 mph (SE)    
Max Wind Speed 25 mph    
Max Gust Speed 32 mph    
Visibility 10 miles    
Events      
Averages and records for this station are not official NWS values.
T = Trace of Precipitation, MM = Missing Value Source: NWS Daily Summary

Daily Weather History Graph

Daily Weather History Graph

Search for Another Location

Airport or City:

Trip Planner

Search our weather history database for the weather conditions in past years. The results will help you decide how hot, cold, wet, or windy it might be!

Date:

Astronomy

Feb. 05, 2013 Rise Set
Actual Time 7:24 AM MST 5:30 PM MST
Civil Twilight 6:54 AM MST 6:00 PM MST
Nautical Twilight 6:20 AM MST 6:34 PM MST
Astronomical Twilight 5:46 AM MST 7:07 PM MST
Moon 3:12 AM MST (2/5) 12:47 PM MST (2/5)
Length of Visible Light 11h 06m
Length of Day
10h 06m
Waning Crescent, 26% of the Moon is Illuminated
Feb 5
Waning Crescent
Feb 10
New
Feb 17
First Quarter
Feb 25
Full
Mar 4
Last Quarter

Hourly Weather History & Observations

Time (MST) Temp. Windchill Dew Point Humidity Pressure Visibility Wind Dir Wind Speed Gust Speed Precip Events Conditions
12:15 AM 33.8 °F 27.0 °F 14.0 °F 44% 29.98 in 10.0 mi NNW 8.1 mph - N/A   Clear
12:35 AM 32.0 °F 24.2 °F 14.0 °F 48% 29.99 in 10.0 mi NNW 9.2 mph - N/A   Clear
12:55 AM 32.0 °F 25.6 °F 14.0 °F 48% 30.00 in 10.0 mi NNW 6.9 mph - N/A   Clear
1:35 AM 32.0 °F 26.4 °F 15.8 °F 51% 30.00 in 10.0 mi NNE 5.8 mph - N/A   Clear
1:55 AM 32.0 °F 27.5 °F 15.8 °F 51% 30.01 in 10.0 mi ESE 4.6 mph - N/A   Clear
2:15 AM 32.0 °F 27.5 °F 15.8 °F 51% 30.01 in 10.0 mi SE 4.6 mph - N/A   Clear
2:35 AM 32.0 °F 26.4 °F 15.8 °F 51% 30.02 in 10.0 mi ESE 5.8 mph - N/A   Clear
2:55 AM 32.0 °F 25.6 °F 15.8 °F 51% 30.01 in 10.0 mi East 6.9 mph - N/A   Clear
3:15 AM 32.0 °F 25.6 °F 15.8 °F 51% 30.00 in 10.0 mi East 6.9 mph - N/A   Clear
3:35 AM 32.0 °F 24.8 °F 15.8 °F 51% 30.00 in 10.0 mi ESE 8.1 mph - N/A   Clear
3:55 AM 32.0 °F 25.6 °F 15.8 °F 51% 30.00 in 10.0 mi ESE 6.9 mph - N/A   Clear
4:15 AM 32.0 °F - 15.8 °F 51% 30.01 in 10.0 mi Calm Calm - N/A   Clear
4:35 AM 32.0 °F 24.2 °F 15.8 °F 51% 30.00 in 10.0 mi ESE 9.2 mph - N/A   Clear
4:55 AM 32.0 °F 23.6 °F 15.8 °F 51% 29.99 in 10.0 mi ESE 10.4 mph - N/A   Clear
5:15 AM 30.2 °F 20.2 °F 15.8 °F 55% 29.99 in 10.0 mi ESE 12.7 mph - N/A   Clear
5:35 AM 30.2 °F 19.8 °F 15.8 °F 55% 29.98 in 10.0 mi ESE 13.8 mph - N/A   Clear
5:55 AM 30.2 °F 19.8 °F 17.6 °F 60% 29.99 in 10.0 mi SE 13.8 mph - N/A   Clear
6:15 AM 30.2 °F 20.2 °F 17.6 °F 60% 29.99 in 10.0 mi ESE 12.7 mph - N/A   Clear
6:35 AM 30.2 °F 21.3 °F 17.6 °F 60% 29.99 in 10.0 mi ESE 10.4 mph - N/A   Clear
6:55 AM 30.2 °F 21.9 °F 17.6 °F 60% 29.99 in 10.0 mi ESE 9.2 mph - N/A   Clear
7:35 AM 30.2 °F 19.8 °F 17.6 °F 60% 29.98 in 10.0 mi SE 13.8 mph - N/A   Overcast
7:55 AM 30.2 °F 20.2 °F 17.6 °F 60% 30.00 in 10.0 mi ESE 12.7 mph - N/A   Overcast
8:15 AM 30.2 °F 20.2 °F 17.6 °F 60% 29.99 in 10.0 mi ESE 12.7 mph - N/A   Overcast
8:35 AM 30.2 °F 21.3 °F 17.6 °F 60% 29.99 in 10.0 mi ESE 10.4 mph - N/A   Overcast
8:55 AM 30.2 °F 21.3 °F 17.6 °F 60% 29.99 in 10.0 mi SE 10.4 mph - N/A   Overcast
9:35 AM 30.2 °F 21.3 °F 19.4 °F 64% 29.99 in 10.0 mi SE 10.4 mph - N/A   Scattered Clouds
9:55 AM 30.2 °F 25.4 °F 19.4 °F 64% 30.00 in 10.0 mi SE 4.6 mph - N/A   Clear
10:15 AM 32.0 °F 26.4 °F 19.4 °F 60% 30.00 in 10.0 mi SSE 5.8 mph - N/A   Clear
10:35 AM 30.2 °F 22.6 °F 19.4 °F 64% 29.99 in 10.0 mi SE 8.1 mph - N/A   Mostly Cloudy
10:55 AM 30.2 °F 21.3 °F 19.4 °F 64% 29.99 in 10.0 mi SE 10.4 mph - N/A   Scattered Clouds
11:15 AM 28.4 °F 19.1 °F 19.4 °F 69% 29.98 in 10.0 mi SE 10.4 mph - N/A   Scattered Clouds
11:35 AM 30.2 °F 20.2 °F 19.4 °F 64% 29.97 in 10.0 mi SE 12.7 mph - N/A   Scattered Clouds
11:55 AM 30.2 °F 21.9 °F 21.2 °F 69% 29.97 in 10.0 mi SSE 9.2 mph - N/A   Clear
12:15 PM 32.0 °F 27.5 °F 21.2 °F 64% 29.97 in 10.0 mi SSE 4.6 mph 16.1 mph N/A   Clear
12:35 PM 32.0 °F 24.8 °F 21.2 °F 64% 29.96 in 10.0 mi SSE 8.1 mph - N/A   Clear
12:55 PM 33.8 °F 24.3 °F 23.0 °F 65% 29.95 in 10.0 mi South 13.8 mph - N/A   Clear
1:15 PM 32.0 °F 24.2 °F 23.0 °F 69% 29.95 in 10.0 mi South 9.2 mph - N/A   Clear
1:35 PM 33.8 °F 25.3 °F 23.0 °F 65% 29.93 in 10.0 mi South 11.5 mph - N/A   Clear
2:15 PM 35.6 °F 28.6 °F 21.2 °F 56% 29.92 in 10.0 mi South 9.2 mph - N/A   Clear
2:35 PM 33.8 °F 27.0 °F 21.2 °F 60% 29.92 in 10.0 mi SSE 8.1 mph - N/A   Clear
2:55 PM 32.0 °F 23.0 °F 21.2 °F 64% 29.91 in 10.0 mi SE 11.5 mph - N/A   Clear
3:15 PM 32.0 °F 24.8 °F 21.2 °F 64% 29.91 in 10.0 mi SE 8.1 mph - N/A   Clear
3:35 PM 33.8 °F 28.6 °F 23.0 °F 65% 29.91 in 10.0 mi SE 5.8 mph - N/A   Clear
3:55 PM 32.0 °F 24.8 °F 21.2 °F 64% 29.91 in 10.0 mi SSE 8.1 mph - N/A   Clear
4:15 PM 33.8 °F 23.5 °F 21.2 °F 60% 29.90 in 10.0 mi SE 16.1 mph - N/A   Clear
4:35 PM 33.8 °F 23.9 °F 23.0 °F 65% 29.89 in 10.0 mi SE 15.0 mph 21.9 mph N/A   Clear
4:55 PM 33.8 °F 24.3 °F 21.2 °F 60% 29.89 in 10.0 mi SSE 13.8 mph 18.4 mph N/A   Clear
5:15 PM 33.8 °F 24.3 °F 21.2 °F 60% 29.89 in 10.0 mi South 13.8 mph 21.9 mph N/A   Clear
5:35 PM 33.8 °F 24.8 °F 21.2 °F 60% 29.90 in 10.0 mi SSE 12.7 mph - N/A   Clear
5:55 PM 33.8 °F 24.3 °F 21.2 °F 60% 29.89 in 10.0 mi SSE 13.8 mph 18.4 mph N/A   Clear
6:15 PM 33.8 °F 23.2 °F 21.2 °F 60% 29.89 in 10.0 mi SSE 17.3 mph 20.7 mph N/A   Clear
6:35 PM 35.6 °F 25.2 °F 21.2 °F 56% 29.89 in 10.0 mi SSE 18.4 mph 26.5 mph N/A   Clear
6:55 PM 35.6 °F 25.9 °F 21.2 °F 56% 29.89 in 10.0 mi SSE 16.1 mph 25.3 mph N/A   Clear
7:35 PM 35.6 °F 24.8 °F 21.2 °F 56% 29.90 in 10.0 mi SSE 19.6 mph 23.0 mph N/A   Clear
7:55 PM 35.6 °F 26.2 °F 19.4 °F 52% 29.91 in 10.0 mi South 15.0 mph 23.0 mph N/A   Clear
8:35 PM 33.8 °F 24.3 °F 19.4 °F 56% 29.90 in 10.0 mi South 13.8 mph - N/A   Clear
8:55 PM 35.6 °F 27.1 °F 15.8 °F 44% 29.89 in 10.0 mi SSE 12.7 mph - N/A   Clear
9:35 PM 33.8 °F 22.8 °F 14.0 °F 44% 29.89 in 10.0 mi SSW 18.4 mph - N/A   Clear
9:55 PM 33.8 °F 22.5 °F 14.0 °F 44% 29.89 in 10.0 mi SSW 19.6 mph - N/A   Clear
10:35 PM 33.8 °F 22.5 °F 14.0 °F 44% 29.89 in 10.0 mi SSW 19.6 mph 26.5 mph N/A   Clear
10:55 PM 33.8 °F 22.8 °F 14.0 °F 44% 29.88 in 10.0 mi SSW 18.4 mph 24.2 mph N/A   Clear
11:35 PM 33.8 °F 22.5 °F 12.2 °F 41% 29.88 in 10.0 mi SW 19.6 mph 27.6 mph N/A   Clear
11:55 PM 33.8 °F 21.0 °F 10.4 °F 38% 29.87 in 10.0 mi WSW 25.3 mph 32.2 mph N/A   Clear